Wind_Speed
12 12 13 13 13 12 11 12 12 13 13 15 17 18 20 23 27 31 32 34 37 39 40 40 39 39 38 34 30 27 27 28 28 29 29 29 30 30 30 29 29 29 28 27
12 12 11 10 9 8 10 13 16 17 18 19 21 22 24 27 30 32 34 36 37 39 40 38 36 36 37 33 29 30 29 29 29 29 29 29 30 30 29 28 28 28 28 28
11 9 7 7 8 10 11 14 17 19 20 22 23 24 28 31 32 33 34 34 35 35 34 32 33 34 33 32 29 28 29 28 29 29 29 30 30 29 28 27 28 28 28 29
8 7 6 7 8 9 11 13 16 19 21 23 24 26 27 30 32 33 33 32 32 30 31 31 31 32 32 31 31 29 29 30 30 31 31 30 30 31 30 30 30 30 30 30
7 7 6 5 5 7 9 12 14 15 17 20 21 24 25 28 30 31 33 32 31 30 32 32 31 31 31 30 30 30 30 31 32 32 32 33 33 33 33 33 33 32 32 32
5 6 5 4 4 7 9 10 11 13 14 16 18 20 22 22 24 27 28 29 29 27 29 30 30 30 30 30 32 33 33 34 34 35 35 36 36 36 37 37 37 36 36 35
3 5 5 5 6 8 10 11 11 10 12 14 16 18 19 20 22 21 21 21 24 26 27 29 31 32 33 34 35 37 38 39 39 40 41 42 42 42 42 42 42 41 40 40
5 5 5 6 7 8 8 10 11 13 13 15 17 19 20 22 22 23 23 24 24 23 26 30 33 34 36 39 41 42 44 45 45 46 47 48 47 47 47 47 47 46 46 45
6 6 6 7 9 10 10 12 14 16 17 18 19 20 21 24 25 26 27 28 28 28 31 34 36 38 40 43 45 46 48 49 50 51 51 52 52 52 53 52 52 51 51 50
8 8 7 8 9 11 13 15 15 17 19 19 21 22 25 27 28 31 33 35 36 36 39 40 41 43 46 47 49 50 52 52 53 54 55 55 55 56 56 56 56 56 55 54
9 9 9 10 10 12 13 15 16 17 19 22 24 26 27 29 32 35 38 40 40 43 45 47 48 50 52 53 54 55 56 56 57 57 58 58 58 59 59 59 59 59 59 59
10 10 10 11 11 13 15 17 18 18 21 23 26 29 31 33 36 39 41 43 45 47 49 51 53 55 56 58 59 60 61 61 61 61 61 61 61 62 62 62 62 62 62 62
10 10 10 11 13 16 17 18 19 20 22 25 28 32 34 37 39 42 44 47 49 51 52 54 56 58 60 61 62 63 64 64 64 64 64 64 64 64 64 65 65 65 65 65
9 11 12 13 15 17 18 18 19 20 23 27 30 33 36 39 42 44 47 50 52 53 55 58 59 61 63 63 64 64 64 65 64 64 63 63 62 62 63 63 64 64 65 66
10 11 13 14 16 18 18 18 19 22 25 28 32 35 38 41 43 46 49 52 54 56 58 60 61 62 63 64 64 64 64 63 62 61 60 59 58 58 57 57 57 57 58 59
11 11 12 14 16 17 17 17 20 24 26 29 32 35 39 42 45 48 51 53 55 57 59 61 62 63 63 64 63 63 61 60 58 57 55 54 53 52 50 49 48 48 47 48
10 11 12 14 16 17 16 19 22 25 28 31 34 38 41 44 46 49 52 55 57 59 60 62 62 63 63 62 61 60 58 56 54 53 51 49 48 46 44 42 41 40 39 39
11 13 15 17 18 18 20 23 27 30 32 34 38 41 45 47 49 51 55 57 58 59 60 61 61 61 60 59 58 57 55 53 51 50 48 46 44 42 39 37 37 36 36 36
15 17 19 21 23 24 25 27 31 34 36 38 41 44 47 49 50 52 55 56 58 58 59 60 60 59 58 56 55 53 51 49 48 47 46 44 42 40 38 37 35 35 34 34
19 20 21 23 25 27 28 30 33 36 39 42 44 47 50 52 55 55 57 58 58 59 60 60 59 57 55 54 52 51 50 49 47 46 43 41 40 39 37 36 36 35 34 33
19 21 22 25 27 29 31 33 35 38 41 44 47 51 53 55 58 60 60 59 59 59 59 58 57 55 53 52 51 50 49 47 45 43 41 40 38 37 36 35 35 34 33 32
20 22 24 27 29 31 33 35 38 41 44 48 51 53 55 57 59 60 59 59 59 59 58 57 55 54 53 52 51 49 47 45 43 41 40 38 37 36 35 34 34 33 32 31
21 23 25 27 30 32 35 38 41 44 47 50 52 54 56 58 60 60 59 58 58 58 57 55 54 53 52 51 50 49 47 45 43 41 39 37 36 35 34 33 32 31 31 30
21 23 25 27 30 33 37 39 42 44 48 51 53 55 57 59 60 59 58 58 58 56 55 54 53 51 50 49 49 47 45 43 41 39 36 35 34 32 31 31 30 29 28 28
23 24 26 29 31 34 36 40 42 45 48 51 53 55 57 59 59 59 58 57 56 54 53 52 51 51 50 48 47 45 43 41 38 35 33 30 29 28 27 27 26 26 25 25
23 25 27 30 32 36 38 41 44 47 50 53 55 56 57 59 59 58 56 55 54 52 52 52 51 50 48 47 45 43 41 38 34 31 28 25 24 23 22 22 22 22 22 21
Wind_Direction
247 247 248 253 255 253 246 242 234 230 234 244 248 250 250 251 255 260 268 275 281 285 288 291 294 295 294 290 285 283 281 281 284 281 282 284 283 284 284 286 286 286 285 285
237 233 245 251 256 261 255 246 237 234 235 239 242 244 246 251 256 261 267 272 278 282 287 290 296 299 300 299 298 289 282 282 284 284 286 286 287 287 284 286 285 285 285 284
236 241 252 265 261 252 250 252 246 241 240 243 247 250 255 257 261 263 265 268 273 279 285 290 296 302 304 304 301 298 292 288 286 288 286 286 288 286 285 289 288 286 285 283
236 240 253 263 261 258 259 260 258 250 248 252 256 262 265 268 267 266 267 268 273 279 285 289 293 299 302 301 300 300 298 293 290 290 287 287 288 288 289 290 288 286 283 284
226 234 248 268 275 280 280 277 275 266 258 258 263 270 276 278 276 272 269 269 272 277 281 285 291 296 297 297 298 297 295 294 293 289 285 286 287 288 286 286 286 284 281 281
228 239 256 283 296 302 302 296 289 280 273 271 271 278 288 296 289 279 273 272 271 276 280 283 288 293 295 296 299 297 294 295 293 291 291 288 286 286 283 283 283 281 279 278
279 283 266 276 295 303 306 306 303 291 285 288 289 293 300 305 307 300 293 290 287 288 287 286 290 294 295 298 300 300 299 297 296 294 293 291 289 286 284 282 281 279 277 276
331 311 282 280 300 313 317 313 311 311 311 311 310 309 312 314 318 317 315 314 310 302 298 296 293 295 298 300 301 301 300 298 296 294 293 291 289 287 284 282 281 279 277 275
342 330 309 299 308 312 311 311 311 311 313 313 313 316 321 319 320 320 318 316 311 306 304 302 297 297 299 299 300 299 297 295 294 292 291 289 287 286 284 282 280 279 277 275
339 333 318 307 307 309 309 307 306 312 314 315 315 318 322 322 322 321 320 316 311 308 307 305 303 301 302 301 299 298 296 294 292 290 289 287 285 283 282 280 279 277 276 274
334 328 317 309 306 304 306 308 307 309 315 316 317 319 321 321 320 320 318 316 313 312 310 310 309 307 305 303 301 299 297 295 293 291 289 287 285 283 281 279 277 276 274 273
330 325 318 312 309 306 306 309 309 310 314 316 318 320 321 320 319 318 317 316 314 313 312 310 309 308 306 304 302 300 298 296 293 291 289 287 284 282 280 278 276 274 272 271
332 327 323 314 307 306 309 313 314 316 315 316 318 319 320 319 319 318 317 315 314 313 312 310 308 306 305 303 302 300 298 297 294 292 290 287 285 282 280 278 275 273 271 269
334 328 324 319 314 314 317 319 319 315 313 314 317 319 320 319 319 318 317 315 314 313 312 311 309 308 306 305 303 301 300 298 296 293 291 289 287 284 281 279 276 274 271 269
331 329 327 322 322 325 326 322 318 317 316 317 319 320 320 320 319 318 317 316 315 313 312 310 309 308 306 305 304 303 301 299 297 295 294 292 289 287 284 281 278 275 273 270
331 332 332 329 329 333 333 326 320 320 319 320 320 320 321 320 320 319 317 315 314 313 312 311 309 308 307 306 305 304 302 301 299 297 295 293 291 288 286 283 280 277 275 272
336 336 336 336 337 337 335 327 323 323 325 325 324 323 323 322 321 320 318 317 316 315 313 312 311 310 308 307 305 304 302 301 299 298 296 294 292 290 286 283 280 277 274 272
346 345 343 341 339 340 337 333 331 330 331 330 328 327 326 325 324 323 320 318 317 316 314 313 312 310 309 307 306 304 303 301 300 298 296 294 291 288 285 282 279 277 274 271
351 349 346 343 342 340 339 337 334 332 333 332 330 329 327 326 324 323 321 319 318 317 317 316 314 313 312 310 308 307 305 303 300 299 296 292 289 285 282 279 277 277 275 272
348 345 340 338 337 338 338 337 335 334 333 332 331 330 329 328 327 327 324 323 321 320 320 318 316 315 313 312 311 309 306 304 302 299 295 291 287 284 280 277 276 275 274 271
339 337 335 335 336 336 338 338 336 334 334 334 333 332 332 331 330 329 327 325 324 322 321 320 318 317 316 314 312 311 309 306 304 300 296 292 288 284 280 276 275 273 272 270
335 333 333 334 336 337 338 337 337 337 336 336 335 334 332 331 330 329 328 326 326 324 323 322 321 320 319 316 314 313 311 309 305 302 297 292 288 284 281 277 273 270 269 268
332 331 332 334 335 336 338 339 339 338 337 336 334 333 333 332 332 331 329 329 328 327 326 325 324 324 322 320 318 315 313 310 308 303 298 293 289 285 281 277 272 269 265 263
330 330 332 334 337 339 340 340 339 338 337 336 335 335 334 334 333 333 332 332 331 330 329 329 328 327 326 324 321 319 316 313 311 308 302 295 289 285 281 276 271 267 264 261
329 331 334 336 338 339 339 339 339 338 337 337 337 336 336 335 336 335 335 334 334 333 332 332 331 330 329 328 326 323 320 317 314 311 308 302 294 288 282 276 271 265 260 257
330 333 334 336 338 339 340 340 340 339 339 339 339 339 338 338 339 338 338 337 336 336 335 335 334 334 333 332 331 329 327 324 321 318 314 308 301 293 285 278 269 263 258 252
Height
5880 5882 5881 5881 5881 5881 5881 5881 5881 5881 5881 5881 5880 5880 5879 5879 5878 5878 5877 5875 5873 5871 5867 5864 5861 5857 5851 5846 5842 5843 5842 5842 5842 5840 5839 5838 5838 5838 5837 5835 5834 5832 5831 5829
5877 5878 5878 5877 5877 5877 5877 5876 5876 5877 5877 5876 5876 5876 5875 5873 5872 5872 5871 5869 5867 5865 5862 5858 5854 5850 5845 5839 5833 5834 5833 5834 5834 5833 5831 5830 5830 5830 5829 5827 5826 5825 5823 5822
5874 5875 5874 5874 5874 5874 5873 5873 5872 5872 5872 5872 5872 5872 5871 5869 5868 5866 5864 5863 5861 5858 5856 5853 5849 5845 5842 5837 5833 5828 5826 5826 5825 5823 5823 5823 5822 5822 5820 5819 5819 5818 5816 5814
5871 5871 5872 5872 5871 5871 5870 5870 5869 5869 5869 5869 5869 5868 5867 5864 5863 5861 5858 5856 5855 5853 5851 5848 5845 5841 5837 5834 5830 5826 5823 5822 5821 5818 5816 5815 5814 5813 5813 5812 5811 5810 5809 5807
5870 5870 5870 5870 5869 5868 5867 5866 5866 5865 5865 5865 5864 5863 5862 5859 5856 5854 5851 5850 5849 5847 5845 5842 5839 5836 5833 5829 5825 5822 5819 5816 5814 5812 5809 5808 5806 5805 5804 5803 5802 5801 5800 5798
5869 5869 5869 5868 5868 5866 5865 5864 5863 5862 5861 5861 5860 5858 5857 5853 5850 5846 5844 5842 5841 5840 5838 5835 5832 5829 5826 5823 5818 5814 5811 5809 5806 5803 5801 5800 5797 5795 5794 5793 5792 5791 5790 5789
5868 5868 5867 5867 5866 5865 5863 5862 5860 5859 5858 5857 5855 5853 5852 5849 5845 5842 5839 5837 5835 5834 5831 5828 5825 5822 5819 5815 5811 5807 5803 5800 5797 5794 5792 5790 5787 5785 5784 5783 5781 5780 5779 5778
5866 5867 5866 5865 5863 5862 5860 5859 5858 5856 5854 5853 5851 5848 5848 5844 5840 5837 5835 5832 5829 5826 5823 5821 5818 5814 5810 5806 5801 5797 5793 5790 5786 5782 5779 5777 5774 5773 5771 5770 5768 5767 5766 5765
5865 5865 5864 5863 5861 5860 5858 5856 5855 5853 5851 5849 5846 5844 5842 5838 5835 5832 5829 5825 5822 5819 5816 5812 5808 5804 5800 5796 5791 5787 5782 5777 5773 5769 5765 5762 5760 5757 5755 5754 5752 5752 5751 5751
5864 5863 5862 5861 5860 5858 5856 5854 5852 5850 5847 5844 5842 5840 5837 5833 5829 5824 5821 5817 5813 5809 5805 5802 5797 5793 5789 5784 5779 5773 5768 5763 5759 5754 5750 5747 5744 5741 5739 5737 5735 5734 5734 5734
5863 5862 5861 5859 5858 5856 5854 5852 5850 5847 5845 5841 5838 5838 5833 5828 5824 5819 5814 5809 5804 5799 5794 5789 5784 5779 5773 5768 5763 5758 5752 5747 5742 5737 5733 5729 5726 5723 5721 5718 5717 5716 5715 5715
5862 5861 5859 5857 5855 5853 5851 5849 5847 5845 5842 5837 5834 5833 5827 5822 5817 5812 5807 5801 5795 5789 5784 5778 5771 5765 5759 5752 5746 5740 5734 5729 5724 5719 5714 5710 5706 5703 5700 5698 5697 5696 5695 5695
5860 5859 5857 5856 5855 5851 5849 5846 5843 5841 5837 5833 5830 5828 5821 5816 5810 5805 5798 5792 5786 5780 5773 5766 5759 5752 5744 5737 5729 5722 5715 5709 5703 5698 5693 5688 5684 5680 5677 5675 5674 5673 5673 5673
5859 5857 5855 5853 5850 5847 5845 5843 5840 5837 5833 5829 5825 5821 5815 5809 5803 5797 5790 5783 5776 5768 5761 5753 5745 5736 5728 5720 5712 5704 5697 5689 5683 5677 5671 5666 5662 5658 5654 5652 5650 5649 5649 5649
5857 5855 5852 5849 5846 5844 5842 5839 5836 5833 5829 5825 5820 5815 5809 5803 5796 5789 5781 5773 5765 5757 5748 5739 5730 5721 5712 5703 5695 5686 5678 5670 5663 5657 5651 5645 5640 5636 5632 5630 5628 5626 5625 5625
5855 5853 5851 5848 5845 5842 5840 5836 5832 5829 5825 5821 5815 5809 5803 5796 5788 5780 5771 5762 5754 5745 5735 5725 5715 5705 5696 5686 5677 5668 5660 5652 5645 5638 5632 5627 5622 5617 5613 5611 5608 5607 5606 5606
5854 5852 5849 5847 5843 5841 5838 5834 5829 5825 5820 5815 5808 5803 5795 5788 5780 5771 5761 5751 5741 5731 5721 5710 5700 5689 5679 5670 5660 5651 5643 5636 5628 5622 5616 5610 5605 5601 5597 5595 5593 5592 5591 5590
5852 5849 5846 5844 5842 5838 5836 5829 5823 5818 5813 5807 5801 5794 5786 5778 5770 5760 5749 5738 5728 5718 5707 5696 5685 5674 5664 5653 5644 5635 5627 5619 5612 5606 5600 5595 5590 5587 5584 5581 5580 5578 5577 5577
5849 5846 5843 5839 5836 5833 5830 5824 5818 5812 5807 5800 5793 5786 5777 5768 5760 5752 5739 5727 5716 5704 5693 5681 5669 5658 5648 5637 5628 5619 5611 5604 5597 5591 5585 5579 5575 5572 5570 5568 5566 5565 5565 5564
5846 5844 5841 5836 5833 5828 5826 5819 5813 5807 5800 5793 5785 5776 5767 5757 5747 5739 5726 5714 5702 5690 5678 5666 5654 5643 5632 5622 5613 5604 5596 5588 5581 5575 5569 5564 5560 5557 5555 5554 5553 5552 5552 5552
5845 5841 5838 5833 5829 5824 5820 5813 5808 5802 5795 5785 5776 5766 5756 5745 5735 5723 5712 5700 5688 5676 5664 5651 5640 5629 5618 5608 5598 5589 5581 5573 5565 5559 5554 5549 5545 5542 5541 5540 5539 5539 5540 5540
5842 5838 5834 5829 5824 5821 5814 5808 5801 5794 5785 5776 5767 5757 5747 5737 5725 5713 5701 5689 5676 5664 5651 5638 5627 5616 5605 5594 5584 5575 5566 5558 5551 5544 5539 5535 5531 5528 5527 5526 5526 5526 5527 5528
5839 5835 5830 5826 5822 5815 5808 5801 5793 5785 5777 5769 5759 5749 5739 5727 5715 5703 5690 5677 5664 5651 5639 5626 5614 5603 5592 5581 5570 5560 5552 5544 5536 5530 5525 5520 5517 5515 5513 5513 5513 5514 5515 5516
5835 5830 5826 5821 5815 5809 5803 5796 5789 5781 5772 5763 5752 5741 5730 5718 5705 5693 5680 5667 5653 5640 5628 5615 5603 5592 5581 5569 5558 5548 5538 5530 5523 5516 5511 5507 5504 5502 5500 5500 5500 5502 5503 5505
5831 5826 5821 5817 5811 5806 5800 5792 5784 5776 5767 5756 5746 5734 5722 5709 5696 5683 5670 5657 5643 5630 5618 5606 5593 5581 5570 5558 5547 5537 5527 5518 5511 5505 5499 5495 5492 5490 5489 5488 5489 5491 5493 5495
5826 5822 5817 5812 5807 5801 5794 5786 5778 5769 5760 5749 5738 5727 5714 5700 5687 5674 5661 5648 5635 5622 5610 5597 5585 5573 5561 5549 5537 5527 5517 5508 5501 5495 5490 5486 5482 5480 5479 5479 5480 5481 5484 5486